Location: Unspecified
(48.8656°N, 0.0000°E)
Time: 08:46:04
(UTC+00:00)

SR - Pass Details

Date: 27 June 2019
Orbit: 580 x 876 km, 66.7° (Epoch: 17 July)

Event Time Altitude Azimuth Distance (km) Brightness Sun altitude
Rises 04:06:32 0° 251° (WSW) 2,797 ? 0.3°
Reaches altitude 10° 04:09:03 10° 265° (W) 1,911 ? 0.6°
Maximum altitude 04:12:35 25° 322° (NW) 1,230 ? 1.1°
Drops below altitude 10° 04:16:17 10° 18° (NNE) 1,995 ? 1.6°
Sets 04:18:59 0° 32° (NNE) 2,949 ? 1.9°
